Flag for Greece Weather past 2 weeks in Patras, Greece

Now
75 °F

Clear.


Feels Like: 75 °F
Forecast: 73 / 94 °F
Wind: No wind

Location: Araxos Airport

Current Time: Jul 6, 2015 at 11:21:22 PM

Latest Report: Jul 6, 2015 at 10:50 PM


Visibility: 10 mi

Pressure: 29.98 "Hg

Humidity: 89%

Dew point: 72 °F

Location of PatrasLocation

Historic Weather in Patras — Graph

°F

Patras temperature yesterday

Maximum temperature yesterday: 88 °F (at 12:50 PM)
Minimum temperature yesterday: 64 °F (at 6:20 AM)
Average temperature yesterday: 80 °F

Past Weeks' High & Low Weather Summary

 TemperatureHumidityPressure
High91 °F (Jul 3, 4:50 PM)100% (Jun 24, 6:50 AM)30.12 "Hg (Jun 24, 6:50 AM)
Low57 °F (Jun 24, 5:50 AM)29% (Jul 4, 3:20 PM)29.74 "Hg (Jun 27, 4:50 AM)
Average76 °F64%29.98 "Hg
* Reported Jun 21 9:50 PM — Jul 6 9:50 PM, Patras, Weather by CustomWeather, © 2015

Note: Actual official high and low records may vary slightly from our data, if they occured in-between our weather recording intervals... More about our weather records

Advertising

Patras weather history for previous 24 hours

 ConditionsComfort  
Time TempWeatherWind HumidityBarometerVisibility
9:50 PM
Mon, Jul 6
77 °FSunny.No wind79%29.98 "Hg10 mi
8:50 PM81 °FSunny.No wind62%29.98 "Hg10 mi
8:20 PM82 °FSunny.No wind58%29.98 "Hg10 mi
7:50 PM84 °FSunny.No wind51%29.98 "Hg10 mi
7:20 PM86 °FPassing clouds.5 mph55%29.98 "HgN/A
6:50 PM88 °FPassing clouds.No wind52%29.98 "HgN/A
6:20 PM86 °FPassing clouds.6 mph52%29.98 "HgN/A
5:50 PM88 °FPassing clouds.6 mph49%29.98 "HgN/A
4:50 PM88 °FPassing clouds.8 mph52%29.98 "HgN/A
4:20 PM88 °FPassing clouds.8 mph52%29.98 "HgN/A
3:50 PM88 °FPassing clouds.8 mph52%29.98 "HgN/A
3:20 PM86 °FPassing clouds.9 mph55%30.01 "HgN/A
2:50 PM86 °FPassing clouds.9 mph52%30.01 "HgN/A
2:20 PM86 °FPassing clouds.8 mph52%30.01 "HgN/A
1:50 PM86 °FPassing clouds.8 mph52%30.01 "HgN/A
1:20 PM86 °FPassing clouds.6 mph52%30.01 "HgN/A
12:50 PM86 °FPassing clouds.6 mph52%30.01 "HgN/A
12:20 PM86 °FPassing clouds.5 mph49%30.04 "HgN/A
11:50 AM84 °FPassing clouds.5 mph62%30.04 "HgN/A
11:20 AM86 °FSunny.3 mph59%30.04 "Hg10 mi
10:50 AM84 °FSunny.No wind62%30.04 "Hg10 mi
10:20 AM84 °FSunny.No wind55%30.04 "Hg10 mi
9:50 AM82 °FSunny.No wind58%30.04 "Hg10 mi
9:20 AM81 °FSunny.No wind66%30.04 "Hg10 mi
8:50 AM79 °FSunny.No wind70%30.04 "Hg10 mi
8:20 AM75 °FSunny.No wind74%30.04 "Hg10 mi
7:50 AM73 °FSunny.No wind74%30.04 "Hg10 mi
7:20 AM70 °FSunny.No wind83%30.04 "Hg10 mi
6:50 AM66 °FClear.No wind94%30.04 "Hg10 mi
6:20 AM66 °FClear.No wind94%30.04 "Hg10 mi
5:50 AM66 °FClear.No wind94%30.01 "Hg10 mi
4:50 AM68 °FClear.No wind88%30.01 "Hg10 mi
3:50 AM68 °FClear.No wind88%30.04 "Hg10 mi
2:50 AM70 °FClear.No wind88%30.04 "Hg10 mi
1:50 AM70 °FClear.No wind88%30.04 "Hg10 mi
12:50 AM72 °FClear.No wind88%30.04 "Hg10 mi
11:50 PM
Sun, Jul 5
73 °FClear.No wind83%30.04 "Hg10 mi
Weather by CustomWeather, © 2015

See weather overviewHow to use our weather pages